COSMOS 1275 DEB, 12766

Orbit data source: Space-Track

COSMOS 1275 DEB, 12766 is space debris in LEO originally from a launch on Thu, 04 Jun 1981 UTC launched from the Plesetsk Missile And Space Complex (PKMTR). Debris objects in space refer to the collection of defunct objects orbiting the Earth. Examples of debris include non-operational satellites, rocket bodies, and fragments generated from explosions, collisions, or faulty payload assembly.

Loading next visibility...
Identifier
12766, 1981-053DK
Orbit
LEO
Country
Flag of CISCIS
Related business
Manufacturer
Unknown
Mission
Spacecraft
Bus & Motor
Unknown
Mass
Unknown
Launch date (UTC)
1981-06-04 (44 years ago)
Launch vehicle
Unknown
Launch site
Plesetsk Missile And Space Complex (PKMTR)
Object type
Payload
Rocket body
Debris
Shape & HBR
Unknown shape, 0.1 m
Radar Cross Section
Small (<0.1 m²)

Expand to show TLE details & history
Last TLE update: 11 hours ago

TLE from 11 hours ago
0 COSMOS 1275 DEB
1 12766U 81053DK  25309.18995388  .00000488  00000-0  52012-3 0  9992
2 12766  82.9453 283.0128 0098119 179.4077 193.8785 13.70040088201175
Epoch: 2025-11-05T04:33Z
TLE epoch observation values (Epoch: 2025-11-05T04:33:32.015Z)
Latitude
12.88209°
Longitude
171.57674°
Altitude
1,071.899 km
Speed
7.282 km/s
True Right ascension
18h 58m 30s
True Declination
12° 48' 39"
Sunlit
Object was in daylight at epoch
Visualization orbit readout
Latitude
Unknown
Longitude
Unknown
Altitude
Unknown
Speed
Unknown
Apparent Right ascension
Unknown
Apparent Declination
Unknown
Sunlit
N/A
Visualization observer readout
Local Sidereal Time
11:40:21
Azimuth
Unknown
Elevation
Unknown
Doppler factor
Unknown
Orbital elements
Apogee altitude
1,068.942 km
Perigee altitude
924.222 km
Semi-major axis
7,374.719 km
Eccentricity
0.00981
Inclination
82.9453°
RAAN
283.0128°
Arg. of periapsis
179.4077°
True anomaly
193.61198°
Mean anomaly
193.8785°
Eccentric anomaly
193.74493°
Mean motion
3.42709 °/min
Orbital period
105.05 mins
BSTAR
0.00052012
Loading maneuver chart data...
Computing Atmospheric mass density...

Documentation

Showing up to 5 results
|